Regional Weather Roundup
Issued by NWS

Home | Current Version | Previous Version | Graphics & Text | Print | Product List | Glossary On
Versions: 1 2 3 4 5 6 7 8 9 10 11 12 13 14 15 16 17 18 19 20 21 22 23 24 25 26 27 28 29 30 31 32 33 34 35 36 37 38 39 40 41 42 43 44 45 46 47 48 49 50
000
ASUS43 KTOP 160759
RWRKS

WEATHER ROUNDUP FOR KANSAS
NATIONAL WEATHER SERVICE GOODLAND KS
300 AM CDT WED AUG 16 2017

NOTE:  "FAIR" INDICATES FEW OR NO CLOUDS BELOW 12,000 FEET WITH NO
SIGNIFICANT WEATHER AND/OR OBSTRUCTIONS TO VISIBILITY.

KSZ001>006-013>018-027>032-041>047-160900-
NORTHWEST KANSAS

CITY           SKY/WX    TMP DP  RH WIND       PRES   REMARKS
GOODLAND       CLOUDY    62  60  93 N20G26    29.90F
HAYS           CLOUDY    74  71  91 SE13      29.76F
HILL CITY      CLOUDY    72  65  78 N37G48    29.80R SQUALL
RUSSELL        PTCLDY    74  71  91 SE13      29.75F
$$

KSZ061>065-074>080-084>089-160900-
SOUTHWEST KANSAS

CITY           SKY/WX    TMP DP  RH WIND       PRES   REMARKS
DODGE CITY     PTCLDY    73  67  81 S9        29.79S
ELKHART          N/A     67  60  78 SW6         N/A
GARDEN CITY    CLOUDY    72  67  84 S9        29.79S
GREAT BEND     CLEAR     72  70  93 SE13      29.78F
LIBERAL        CLOUDY    70  62  76 S9        29.84R
$$

KSZ066>073-081>083-090>101-160900-
SOUTHEAST KANSAS

CITY           SKY/WX    TMP DP  RH WIND       PRES   REMARKS
CHANUTE        CLOUDY    73  69  87 SE7       29.85F
COFFEYVILLE    CLOUDY    72  70  93 SE5       29.85S
HUTCHINSON     PTCLDY    72  70  93 SE9       29.80F
MEDICINE LODGE   N/A     73  71  93 SE7       29.80F
NEWTON         CLOUDY    72  69  90 S9        29.83S
PARSONS        CLOUDY    73  69  87 CALM      29.86S
WICHITA INTL   PTCLDY    72  71  97 S8        29.81F
WICHITA JABRA  CLOUDY    72  70  93 S9        29.82S
WICHITA MCCONL PTCLDY    72  70  94 SW9       29.82F
WINFIELD       CLEAR     72  70  93 S8        29.84F
$$

KSZ007>012-019>026-033>040-048>060-102>105-160900-
NORTHEAST KANSAS

CITY           SKY/WX    TMP DP  RH WIND       PRES   REMARKS
CONCORDIA      PTCLDY    70  70 100 SE6       29.78F
EMPORIA        CLOUDY    73  68  84 S9        29.83S
LAWRENCE       CLOUDY    74  73  97 SE3       29.83S
MANHATTAN      CLOUDY    77  72  84 S9        29.78F
OLATHE IND     CLOUDY    75  72  90 S9        29.85S
OLATHE EXE     CLOUDY    74  73  97 S9        29.85S
SALINA         CLEAR     76  72  87 S12       29.79S
TOPEKA BILLARD CLOUDY    77  74  90 SE8       29.82S
TOPEKA FORBES  LGT RAIN  77  74  90 S8        29.83S
$$



USA.gov is the U.S. government's official web portal to all federal, state and local government web resources and services.